Time,TemperatureF,DewpointF,PressureIn,WindDirection,WindDirectionDegrees,WindSpeedMPH,WindSpeedGustMPH,Humidity,HourlyPrecipIn,Conditions,Clouds,dailyrainin,SoftwareType,DateUTC
2013-04-23 00:03:00,67.0,-99.9,30.08,East,83,14.0,19.0,-999,-99.99,,,-99.99,,2013-04-23 04:03:00,
2013-04-23 00:13:00,67.0,-99.9,30.08,ENE,65,13.0,19.0,-999,-99.99,,,-99.99,,2013-04-23 04:13:00,
2013-04-23 00:23:00,67.0,-99.9,30.08,ENE,72,11.0,16.0,-999,-99.99,,,-99.99,,2013-04-23 04:23:00,
2013-04-23 00:33:00,67.0,-99.9,30.07,East,82,16.0,21.0,-999,-99.99,,,-99.99,,2013-04-23 04:33:00,
2013-04-23 00:44:00,67.0,-99.9,30.07,ENE,75,13.0,16.0,-999,-99.99,,,-99.99,,2013-04-23 04:44:00,
2013-04-23 00:53:00,67.0,-99.9,30.07,East,83,15.0,19.0,-999,-99.99,,,-99.99,,2013-04-23 04:53:00,
2013-04-23 01:02:00,67.0,-99.9,30.07,East,79,13.0,16.0,-999,-99.99,,,-99.99,,2013-04-23 05:02:00,
2013-04-23 01:12:00,67.0,-99.9,30.07,East,79,13.0,17.0,-999,-99.99,,,-99.99,,2013-04-23 05:12:00,
2013-04-23 01:22:00,67.0,-99.9,30.07,East,83,15.0,18.0,-999,-99.99,,,-99.99,,2013-04-23 05:22:00,
2013-04-23 01:33:00,67.0,-99.9,30.07,East,79,12.0,16.0,-999,-99.99,,,-99.99,,2013-04-23 05:33:00,
2013-04-23 01:43:00,67.0,-99.9,30.07,East,81,12.0,16.0,-999,-99.99,,,-99.99,,2013-04-23 05:43:00,
2013-04-23 01:52:00,67.0,-99.9,30.06,East,80,12.0,15.0,-999,-99.99,,,-99.99,,2013-04-23 05:52:00,
2013-04-23 02:02:00,67.0,-99.9,30.06,East,80,10.0,15.0,-999,-99.99,,,-99.99,,2013-04-23 06:02:00,
2013-04-23 02:12:00,67.0,-99.9,30.07,East,87,9.0,13.0,-999,-99.99,,,-99.99,,2013-04-23 06:12:00,
2013-04-23 02:22:00,67.0,-99.9,30.06,ENE,64,9.0,14.0,-999,-99.99,,,-99.99,,2013-04-23 06:22:00,
2013-04-23 02:33:00,67.0,-99.9,30.06,ENE,77,9.0,13.0,-999,-99.99,,,-99.99,,2013-04-23 06:33:00,
2013-04-23 02:42:00,67.0,-99.9,30.06,ENE,70,10.0,13.0,-999,-99.99,,,-99.99,,2013-04-23 06:42:00,
2013-04-23 02:52:00,67.0,-99.9,30.06,ENE,60,10.0,17.0,-999,-99.99,,,-99.99,,2013-04-23 06:52:00,
2013-04-23 03:02:00,66.0,-99.9,30.05,ENE,60,13.0,18.0,-999,-99.99,,,-99.99,,2013-04-23 07:02:00,
2013-04-23 03:11:00,66.0,-99.9,30.05,ENE,67,11.0,16.0,-999,-99.99,,,-99.99,,2013-04-23 07:11:00,
2013-04-23 03:22:00,66.0,-99.9,30.05,ENE,68,11.0,17.0,-999,-99.99,,,-99.99,,2013-04-23 07:22:00,
2013-04-23 03:32:00,66.0,-99.9,30.04,East,82,11.0,18.0,-999,-99.99,,,-99.99,,2013-04-23 07:32:00,
2013-04-23 03:42:00,66.0,-99.9,30.04,ENE,61,11.0,14.0,-999,-99.99,,,-99.99,,2013-04-23 07:42:00,
2013-04-23 03:52:00,66.0,-99.9,30.04,ENE,70,11.0,16.0,-999,-99.99,,,-99.99,,2013-04-23 07:52:00,
2013-04-23 04:02:00,66.0,-99.9,30.03,ENE,60,9.0,13.0,-999,-99.99,,,-99.99,,2013-04-23 08:02:00,
2013-04-23 04:11:00,66.0,-99.9,30.03,ENE,59,10.0,15.0,-999,-99.99,,,-99.99,,2013-04-23 08:11:00,
2013-04-23 04:22:00,66.0,-99.9,30.03,East,87,13.0,17.0,-999,-99.99,,,-99.99,,2013-04-23 08:22:00,
2013-04-23 04:32:00,66.0,-99.9,30.03,East,87,10.0,14.0,-999,-99.99,,,-99.99,,2013-04-23 08:32:00,
2013-04-23 04:42:00,66.0,-99.9,30.02,ENE,58,10.0,14.0,-999,-99.99,,,-99.99,,2013-04-23 08:42:00,
2013-04-23 04:52:00,66.0,-99.9,30.03,ENE,73,11.0,15.0,-999,-99.99,,,-99.99,,2013-04-23 08:52:00,
2013-04-23 05:02:00,66.0,-99.9,30.02,ENE,72,9.0,15.0,-999,-99.99,,,-99.99,,2013-04-23 09:02:00,
2013-04-23 05:11:00,66.0,-99.9,30.03,ENE,65,11.0,14.0,-999,-99.99,,,-99.99,,2013-04-23 09:11:00,
2013-04-23 05:22:00,66.0,-99.9,30.03,ENE,76,8.0,14.0,-999,-99.99,,,-99.99,,2013-04-23 09:22:00,
2013-04-23 05:33:00,66.0,-99.9,30.03,ENE,67,8.0,13.0,-999,-99.99,,,-99.99,,2013-04-23 09:33:00,
2013-04-23 05:43:00,66.0,-99.9,30.03,ENE,72,11.0,14.0,-999,-99.99,,,-99.99,,2013-04-23 09:43:00,
2013-04-23 05:53:00,66.0,-99.9,30.03,ENE,64,9.0,13.0,-999,-99.99,,,-99.99,,2013-04-23 09:53:00,
2013-04-23 06:03:00,66.0,-99.9,30.03,East,82,8.0,15.0,-999,-99.99,,,-99.99,,2013-04-23 10:03:00,
2013-04-23 06:13:00,66.0,-99.9,30.03,ENE,64,9.0,13.0,-999,-99.99,,,-99.99,,2013-04-23 10:13:00,
2013-04-23 06:23:00,65.0,-99.9,30.03,ENE,60,10.0,14.0,-999,-99.99,,,-99.99,,2013-04-23 10:23:00,
2013-04-23 06:33:00,65.0,-99.9,30.04,ENE,61,12.0,16.0,-999,-99.99,,,-99.99,,2013-04-23 10:33:00,
2013-04-23 06:43:00,65.0,-99.9,30.04,ENE,58,12.0,17.0,-999,-99.99,,,-99.99,,2013-04-23 10:43:00,
2013-04-23 06:53:00,65.0,-99.9,30.04,ENE,68,12.0,15.0,-999,-99.99,,,-99.99,,2013-04-23 10:53:00,
2013-04-23 07:03:00,65.0,-99.9,30.04,ENE,63,6.0,13.0,-999,-99.99,,,-99.99,,2013-04-23 11:03:00,
2013-04-23 07:12:00,65.0,-99.9,30.04,NE,52,9.0,13.0,-999,-99.99,,,-99.99,,2013-04-23 11:12:00,
2013-04-23 07:22:00,65.0,-99.9,30.05,NE,50,10.0,16.0,-999,-99.99,,,-99.99,,2013-04-23 11:22:00,
2013-04-23 07:33:00,65.0,-99.9,30.06,ENE,58,11.0,14.0,-999,-99.99,,,-99.99,,2013-04-23 11:33:00,
2013-04-23 07:43:00,65.0,-99.9,30.06,NE,56,10.0,14.0,-999,-99.99,,,-99.99,,2013-04-23 11:43:00,
2013-04-23 07:53:00,65.0,-99.9,30.06,NE,49,8.0,11.0,-999,-99.99,,,-99.99,,2013-04-23 11:53:00,
2013-04-23 08:02:00,65.0,-99.9,30.06,NE,55,10.0,14.0,-999,-99.99,,,-99.99,,2013-04-23 12:02:00,
2013-04-23 08:12:00,65.0,-99.9,30.07,ENE,59,10.0,14.0,-999,-99.99,,,-99.99,,2013-04-23 12:12:00,
2013-04-23 08:22:00,65.0,-99.9,30.07,ENE,67,7.0,12.0,-999,-99.99,,,-99.99,,2013-04-23 12:22:00,
2013-04-23 08:32:00,65.0,-99.9,30.07,ENE,60,9.0,14.0,-999,-99.99,,,-99.99,,2013-04-23 12:32:00,
2013-04-23 08:42:00,65.0,-99.9,30.07,East,82,9.0,12.0,-999,-99.99,,,-99.99,,2013-04-23 12:42:00,
2013-04-23 08:52:00,65.0,-99.9,30.08,East,84,10.0,14.0,-999,-99.99,,,-99.99,,2013-04-23 12:52:00,
2013-04-23 09:01:00,65.0,-99.9,30.08,ENE,60,8.0,11.0,-999,-99.99,,,-99.99,,2013-04-23 13:01:00,
2013-04-23 09:12:00,65.0,-99.9,30.08,NE,54,8.0,9.0,-999,-99.99,,,-99.99,,2013-04-23 13:12:00,
2013-04-23 09:22:00,66.0,-99.9,30.09,ENE,73,8.0,10.0,-999,-99.99,,,-99.99,,2013-04-23 13:22:00,
2013-04-23 09:32:00,67.0,-99.9,30.09,ENE,60,6.0,8.0,-999,-99.99,,,-99.99,,2013-04-23 13:32:00,
2013-04-23 09:42:00,67.0,-99.9,30.09,ENE,78,7.0,9.0,-999,-99.99,,,-99.99,,2013-04-23 13:42:00,
2013-04-23 09:52:00,67.0,-99.9,30.09,NE,50,7.0,9.0,-999,-99.99,,,-99.99,,2013-04-23 13:52:00,
2013-04-23 10:02:00,68.0,-99.9,30.10,ENE,75,8.0,11.0,-999,-99.99,,,-99.99,,2013-04-23 14:02:00,
2013-04-23 10:11:00,69.0,-99.9,30.10,East,79,8.0,12.0,-999,-99.99,,,-99.99,,2013-04-23 14:11:00,
2013-04-23 10:22:00,69.0,-99.9,30.10,NE,49,6.0,11.0,-999,-99.99,,,-99.99,,2013-04-23 14:22:00,
2013-04-23 10:32:00,69.0,-99.9,30.11,ENE,62,8.0,11.0,-999,-99.99,,,-99.99,,2013-04-23 14:32:00,
2013-04-23 10:42:00,69.0,-99.9,30.11,ENE,62,8.0,11.0,-999,-99.99,,,-99.99,,2013-04-23 14:42:00,
2013-04-23 10:52:00,70.0,-99.9,30.11,ENE,61,9.0,11.0,-999,-99.99,,,-99.99,,2013-04-23 14:52:00,
2013-04-23 11:01:00,70.0,-99.9,30.11,ENE,61,9.0,11.0,-999,-99.99,,,-99.99,,2013-04-23 15:01:00,
2013-04-23 11:12:00,70.0,-99.9,30.11,NE,54,7.0,10.0,-999,-99.99,,,-99.99,,2013-04-23 15:12:00,
2013-04-23 11:22:00,72.0,-99.9,30.11,ENE,68,7.0,12.0,-999,-99.99,,,-99.99,,2013-04-23 15:22:00,
2013-04-23 11:32:00,72.0,-99.9,30.11,ENE,59,5.0,9.0,-999,-99.99,,,-99.99,,2013-04-23 15:32:00,
2013-04-23 11:43:00,73.0,-99.9,30.11,ENE,73,6.0,11.0,-999,-99.99,,,-99.99,,2013-04-23 15:43:00,
2013-04-23 11:53:00,73.0,-99.9,30.11,East,81,7.0,10.0,-999,-99.99,,,-99.99,,2013-04-23 15:53:00,
2013-04-23 12:03:00,74.0,-99.9,30.11,East,84,5.0,10.0,-999,-99.99,,,-99.99,,2013-04-23 16:03:00,
2013-04-23 12:12:00,74.0,-99.9,30.11,ENE,66,6.0,10.0,-999,-99.99,,,-99.99,,2013-04-23 16:12:00,
2013-04-23 12:23:00,75.0,-99.9,30.11,ENE,75,6.0,9.0,-999,-99.99,,,-99.99,,2013-04-23 16:23:00,
2013-04-23 12:34:00,75.0,-99.9,30.11,East,87,5.0,8.0,-999,-99.99,,,-99.99,,2013-04-23 16:34:00,
2013-04-23 12:43:00,75.0,-99.9,30.10,East,89,5.0,8.0,-999,-99.99,,,-99.99,,2013-04-23 16:43:00,
2013-04-23 12:53:00,75.0,-99.9,30.10,ESE,117,6.0,9.0,-999,-99.99,,,-99.99,,2013-04-23 16:53:00,
2013-04-23 13:03:00,76.0,-99.9,30.09,SE,141,3.0,9.0,-999,-99.99,,,-99.99,,2013-04-23 17:03:00,
2013-04-23 13:12:00,76.0,-99.9,30.09,SE,138,5.0,7.0,-999,-99.99,,,-99.99,,2013-04-23 17:12:00,
2013-04-23 13:22:00,76.0,-99.9,30.09,ENE,75,2.0,5.0,-999,-99.99,,,-99.99,,2013-04-23 17:22:00,
2013-04-23 13:33:00,76.0,-99.9,30.09,NE,34,1.0,3.0,-999,-99.99,,,-99.99,,2013-04-23 17:33:00,
2013-04-23 13:43:00,74.0,-99.9,30.08,NW,319,9.0,12.0,-999,-99.99,,,-99.99,,2013-04-23 17:43:00,
2013-04-23 13:53:00,73.0,-99.9,30.08,NW,317,8.0,9.0,-999,-99.99,,,-99.99,,2013-04-23 17:53:00,
2013-04-23 14:02:00,74.0,-99.9,30.07,NW,319,8.0,10.0,-999,-99.99,,,-99.99,,2013-04-23 18:02:00,
2013-04-23 14:12:00,74.0,-99.9,30.07,NW,325,8.0,10.0,-999,-99.99,,,-99.99,,2013-04-23 18:12:00,
2013-04-23 14:22:00,74.0,-99.9,30.07,NW,320,7.0,9.0,-999,-99.99,,,-99.99,,2013-04-23 18:22:00,
2013-04-23 14:32:00,74.0,-99.9,30.07,NW,324,9.0,11.0,-999,-99.99,,,-99.99,,2013-04-23 18:32:00,
2013-04-23 14:42:00,74.0,-99.9,30.07,NW,320,9.0,12.0,-999,-99.99,,,-99.99,,2013-04-23 18:42:00,
2013-04-23 14:52:00,73.0,-99.9,30.07,NNW,338,12.0,13.0,-999,-99.99,,,-99.99,,2013-04-23 18:52:00,
2013-04-23 15:02:00,73.0,-99.9,30.06,NNW,340,11.0,12.0,-999,-99.99,,,-99.99,,2013-04-23 19:02:00,
2013-04-23 15:11:00,73.0,-99.9,30.06,NNW,343,12.0,13.0,-999,-99.99,,,-99.99,,2013-04-23 19:11:00,
2013-04-23 15:22:00,74.0,-99.9,30.06,NNW,348,14.0,14.0,-999,-99.99,,,-99.99,,2013-04-23 19:22:00,
2013-04-23 15:33:00,74.0,-99.9,30.06,North,350,13.0,14.0,-999,-99.99,,,-99.99,,2013-04-23 19:33:00,
2013-04-23 15:42:00,73.0,-99.9,30.06,NNW,347,13.0,14.0,-999,-99.99,,,-99.99,,2013-04-23 19:42:00,
2013-04-23 15:52:00,74.0,-99.9,30.06,NNW,345,12.0,13.0,-999,-99.99,,,-99.99,,2013-04-23 19:52:00,
2013-04-23 16:02:00,74.0,-99.9,30.05,North,349,13.0,14.0,-999,-99.99,,,-99.99,,2013-04-23 20:02:00,
2013-04-23 16:11:00,74.0,-99.9,30.05,NNW,347,12.0,14.0,-999,-99.99,,,-99.99,,2013-04-23 20:11:00,
2013-04-23 16:22:00,74.0,-99.9,30.05,NNW,347,13.0,14.0,-999,-99.99,,,-99.99,,2013-04-23 20:22:00,
2013-04-23 16:32:00,74.0,-99.9,30.04,NNW,346,14.0,15.0,-999,-99.99,,,-99.99,,2013-04-23 20:32:00,
2013-04-23 16:42:00,74.0,-99.9,30.04,North,349,14.0,15.0,-999,-99.99,,,-99.99,,2013-04-23 20:42:00,
2013-04-23 16:52:00,73.0,-99.9,30.04,North,355,14.0,15.0,-999,-99.99,,,-99.99,,2013-04-23 20:52:00,
2013-04-23 17:02:00,74.0,-99.9,30.04,NNW,344,14.0,16.0,-999,-99.99,,,-99.99,,2013-04-23 21:02:00,
2013-04-23 17:12:00,74.0,-99.9,30.03,NNW,343,14.0,15.0,-999,-99.99,,,-99.99,,2013-04-23 21:12:00,
2013-04-23 17:22:00,74.0,-99.9,30.03,North,349,15.0,16.0,-999,-99.99,,,-99.99,,2013-04-23 21:22:00,
2013-04-23 17:33:00,74.0,-99.9,30.03,North,350,14.0,15.0,-999,-99.99,,,-99.99,,2013-04-23 21:33:00,
2013-04-23 17:43:00,74.0,-99.9,30.03,NNW,346,14.0,16.0,-999,-99.99,,,-99.99,,2013-04-23 21:43:00,
2013-04-23 17:53:00,74.0,-99.9,30.03,North,349,14.0,16.0,-999,-99.99,,,-99.99,,2013-04-23 21:53:00,
2013-04-23 18:03:00,74.0,-99.9,30.03,NNW,345,16.0,17.0,-999,-99.99,,,-99.99,,2013-04-23 22:03:00,
2013-04-23 18:12:00,74.0,-99.9,30.03,NNW,342,15.0,16.0,-999,-99.99,,,-99.99,,2013-04-23 22:12:00,
2013-04-23 18:23:00,74.0,-99.9,30.03,NNW,338,16.0,17.0,-999,-99.99,,,-99.99,,2013-04-23 22:23:00,
2013-04-23 18:33:00,74.0,-99.9,30.04,NNW,338,15.0,16.0,-999,-99.99,,,-99.99,,2013-04-23 22:33:00,
2013-04-23 18:42:00,74.0,-99.9,30.04,NNW,343,15.0,17.0,-999,-99.99,,,-99.99,,2013-04-23 22:42:00,
2013-04-23 18:53:00,74.0,-99.9,30.03,NNW,337,15.0,19.0,-999,-99.99,,,-99.99,,2013-04-23 22:53:00,
2013-04-23 19:03:00,74.0,-99.9,30.04,NNW,347,15.0,18.0,-999,-99.99,,,-99.99,,2013-04-23 23:03:00,
2013-04-23 19:12:00,74.0,-99.9,30.04,NNW,346,16.0,18.0,-999,-99.99,,,-99.99,,2013-04-23 23:12:00,
2013-04-23 19:22:00,74.0,-99.9,30.04,NNW,340,15.0,17.0,-999,-99.99,,,-99.99,,2013-04-23 23:22:00,
2013-04-23 19:32:00,74.0,-99.9,30.04,NNW,346,16.0,18.0,-999,-99.99,,,-99.99,,2013-04-23 23:32:00,
2013-04-23 19:42:00,74.0,-99.9,30.04,North,354,16.0,19.0,-999,-99.99,,,-99.99,,2013-04-23 23:42:00,
2013-04-23 19:52:00,74.0,-99.9,30.04,North,358,14.0,17.0,-999,-99.99,,,-99.99,,2013-04-23 23:52:00,
2013-04-23 20:02:00,74.0,-99.9,30.04,North,357,14.0,17.0,-999,-99.99,,,-99.99,,2013-04-24 00:02:00,
2013-04-23 20:11:00,74.0,-99.9,30.04,North,359,15.0,17.0,-999,-99.99,,,-99.99,,2013-04-24 00:11:00,
2013-04-23 20:22:00,74.0,-99.9,30.04,North,358,14.0,17.0,-999,-99.99,,,-99.99,,2013-04-24 00:22:00,
2013-04-23 20:32:00,75.0,-99.9,30.04,North,-999,15.0,17.0,-999,-99.99,,,-99.99,,2013-04-24 00:32:00,
2013-04-23 20:42:00,75.0,-99.9,30.04,North,11,14.0,17.0,-999,-99.99,,,-99.99,,2013-04-24 00:42:00,
2013-04-23 20:52:00,75.0,-99.9,30.04,NNE,15,12.0,16.0,-999,-99.99,,,-99.99,,2013-04-24 00:52:00,
2013-04-23 21:02:00,75.0,-99.9,30.04,NNE,20,11.0,13.0,-999,-99.99,,,-99.99,,2013-04-24 01:02:00,
2013-04-23 21:12:00,75.0,-99.9,30.04,NNE,31,7.0,11.0,-999,-99.99,,,-99.99,,2013-04-24 01:12:00,
2013-04-23 21:22:00,76.0,-99.9,30.05,ENE,77,6.0,9.0,-999,-99.99,,,-99.99,,2013-04-24 01:22:00,
2013-04-23 21:32:00,77.0,-99.9,30.05,East,81,8.0,11.0,-999,-99.99,,,-99.99,,2013-04-24 01:32:00,
2013-04-23 21:43:00,77.0,-99.9,30.06,East,88,7.0,10.0,-999,-99.99,,,-99.99,,2013-04-24 01:43:00,
2013-04-23 21:52:00,77.0,-99.9,30.06,East,82,10.0,14.0,-999,-99.99,,,-99.99,,2013-04-24 01:52:00,
2013-04-23 22:02:00,77.0,-99.9,30.06,East,81,9.0,12.0,-999,-99.99,,,-99.99,,2013-04-24 02:02:00,
2013-04-23 22:20:00,76.0,-99.9,30.06,East,93,8.0,16.0,-999,-99.99,,,-99.99,,2013-04-24 02:20:00,
2013-04-23 22:30:00,76.0,-99.9,30.07,East,80,12.0,17.0,-999,-99.99,,,-99.99,,2013-04-24 02:30:00,
2013-04-23 22:42:00,75.0,-99.9,30.08,East,88,10.0,15.0,-999,-99.99,,,-99.99,,2013-04-24 02:42:00,
2013-04-23 22:51:00,75.0,-99.9,30.08,East,92,13.0,18.0,-999,-99.99,,,-99.99,,2013-04-24 02:51:00,
2013-04-23 23:02:00,75.0,-99.9,30.08,East,96,9.0,19.0,-999,-99.99,,,-99.99,,2013-04-24 03:02:00,
2013-04-23 23:12:00,74.0,-99.9,30.09,East,95,12.0,20.0,-999,-99.99,,,-99.99,,2013-04-24 03:12:00,
2013-04-23 23:18:00,74.0,-99.9,30.09,East,86,9.0,14.0,-999,-99.99,,,-99.99,,2013-04-24 03:18:00,
2013-04-23 23:33:00,73.0,-99.9,30.09,East,94,9.0,14.0,-999,-99.99,,,-99.99,,2013-04-24 03:33:00,
2013-04-23 23:44:00,73.0,-99.9,30.10,East,99,15.0,19.0,-999,-99.99,,,-99.99,,2013-04-24 03:44:00,
2013-04-23 23:54:00,73.0,-99.9,30.10,East,90,11.0,15.0,-999,-99.99,,,-99.99,,2013-04-24 03:54:00,